Regional Weather Roundup
Issued by NWS Sterling, VA

Home | Current Version | Previous Version | Graphics & Text | Print | Product List | Glossary On
Versions: 1 2 3 4 5 6 7 8 9 10 11 12 13 14 15 16 17 18 19 20 21 22 23 24 25 26 27 28 29 30 31 32 33 34 35 36 37 38 39 40 41 42 43 44 45 46 47 48 49 50
000
ASUS41 KLWX 212110
RWRLWX

REGIONAL WEATHER ROUNDUP
NATIONAL WEATHER SERVICE BALTIMORE MD/WASHINGTON DC
500 PM EDT THU MAY 21 2015

Note: "FAIR" indicates few or no clouds below 12,000 feet
with no significant weather and/or obstructions to visibility.
 TC=TEMPERATURE CELSIUS

 * =Non NWS site. Station does not report precipitation (e.g. rain,
    snow, etc.), thunder, or fog.

DCZ001-MDZ009-015-VAZ040>042-051-053>054-212200-
WASHINGTON METRO

CITY           SKY/WX    TMP DP  RH WIND       PRES   REMARKS
WASHINGTON NAT CLOUDY    55  49  80 NE7       29.93F
DULLES         CLOUDY    52  48  86 E3        29.93S
ANDREWS AFB    CLOUDY    52  51  96 NE6       29.91F
FT BELVOIR     CLOUDY    53  51  92 VRB2      29.92F
QUANTICO       CLOUDY    55  50  83 NE9       29.92F
COLLEGE PARK*  CLOUDY    52  50  93 N3        29.93F
LEESBURG*      CLOUDY    54  52  94 S5        29.93F
MANASSAS*      CLOUDY    54  52  94 MISG      29.93F
GAITHERSBURG*  CLOUDY    50  46  87 NE3       29.97S

$$

MDZ006>007-011-014-212200-
BALTIMORE METRO

CITY           SKY/WX    TMP DP  RH WIND       PRES   REMARKS
BWI AIRPORT    CLOUDY    52  48  87 NE7       29.93F
MD SCIENCE CTR   N/A     52  47  83 MISG      29.94F
MARTIN STATE   CLOUDY    52  52 100 CALM      29.95F
ANNAPOLIS      CLOUDY    53  49  86 NE8       29.92F
FORT MEADE*    CLOUDY    50  46  87 N3        29.96F

$$

MDZ012-015-019>023-212200-
MARYLAND EASTERN SHORE

CITY           SKY/WX    TMP DP  RH WIND       PRES   REMARKS
OCEAN CITY     LGT RAIN  52  50  93 NE12      29.90F FOG
SALISBURY      RAIN      52  51  97 N9        29.91S FOG
BAY BRIDGE AP* DRIZZLE  N/A N/A N/A NE5       29.92F
CAMBRIDGE*     CLOUDY    52  50  93 NE5       29.91F
EASTON*        RAIN      52  52 100 E3        29.95F

$$

MDZ017>025-212200-
SOUTHERN MARYLAND

CITY           SKY/WX    TMP DP  RH WIND       PRES   REMARKS
PATUXENT RIVER LGT RAIN  53  51  93 NE10      29.90F FOG
ST INIGOES     CLOUDY    53  51  93 NE8       29.89F
LEONARDTOWN*   CLOUDY    52  50  93 NE6       29.91F

$$

MDZ003>005-212200-
NORTH CENTRAL MARYLAND

CITY           SKY/WX    TMP DP  RH WIND       PRES   REMARKS
FREDERICK*     CLOUDY    55  48  76 CALM      29.95F
HAGERSTOWN APT CLOUDY    54  48  80 NW3       29.92S
WESTMINSTER*   CLOUDY    54  46  76 SE3       29.93S

$$

MDZ501>502-212200-
WESTERN MARYLAND

CITY           SKY/WX    TMP DP  RH WIND       PRES   REMARKS
OAKLAND*       CLOUDY    46 N/A N/A W8        29.92R
CUMBERLAND*    CLOUDY    54  50  87 CALM      29.95S

$$

VAZ025>031-212200-
SHENANDOAH VALLEY

CITY           SKY/WX    TMP DP  RH WIND       PRES   REMARKS
WINCHESTER*    CLOUDY    55  46  71 CALM      29.92S
FRONT ROYAL*   CLOUDY    54  52  94 E3        29.90F
LURAY*         CLOUDY    57  52  82 CALM      29.91S
NEW MARKET*    CLOUDY    55  50  83 CALM      29.90S
STAUNTON*      CLOUDY    55  50  82 CALM      29.93S
WAYNESBORO*    CLOUDY    52  50  93 SE3       29.91S

$$

WVZ021-048>050-054>055-212200-
EASTERN WEST VIRGINIA PANHANDLE

CITY           SKY/WX    TMP DP  RH WIND       PRES   REMARKS
MARTINSBURG    CLOUDY    54  49  83 SE3       29.92S
PETERSBURG*    CLOUDY    55  51  86 CALM      29.92S

$$

VAZ036>039-050-212200-
CENTRAL FOOTHILLS

CITY           SKY/WX    TMP DP  RH WIND       PRES   REMARKS
CHARLOTTESVILL CLOUDY    54  51  90 N3        29.91S
CULPEPER*      CLOUDY    54  51  90 CALM      29.93S
ORANGE*        CLOUDY    54  52  94 N3        29.93S
GORDONSVILLE*  CLOUDY    53  51  92 N5        29.91S
WARRENTON*     CLOUDY    55  53  91 NE5       29.91F

$$

VAZ055>057-212200-
NORTH AND CENTRAL PIEDMONT

CITY           SKY/WX    TMP DP  RH WIND       PRES   REMARKS
FREDERICKSBRG* CLOUDY    56  56  99 NE6       29.91S
STAFFORD*      CLOUDY    53  51  92 N6        29.95F

$$

NCZ024-NYZ072-PAZ021-071-VAZ022-071-212200-
OTHER REGIONAL OBSERVATIONS

CITY           SKY/WX    TMP DP  RH WIND       PRES   REMARKS
NEW YORK CITY  PTSUNNY   60  41  49 MISG      29.94F
PHILADELPHIA   LGT RAIN  51  46  83 N3        29.95F
PITTSBURGH     CLOUDY    53  42  66 W9        29.95R
ROANOKE        PTSUNNY   67  57  70 VRB3      29.90S
RICHMOND       CLOUDY    57  54  89 NE12G20   29.86F
RALEIGH        CLOUDY    64  59  83 N6        29.85F

$$

ANZ530>537-212200-
MARINE OBSERVATIONS

STATION/POSITION TIME  TEMP    WIND        PRES
                       AIR SEA DIR/SP/G
                 (UTC) (F)     (DEG/KT/KT) (MB)
THOMAS PT LIGHT  2100   51 66   50/  9/ 10 1013.7F
BALT KEY BRIDGE  2000   50      50/  5/  6 1013.9F
COVE POINT       2000   52      90/ 10/ 12 1013.8F
LEWISETTA        2000   55 70              1012.5F
PINEY POINT      2000           60/  6/  9   N/A

$$




USA.gov is the U.S. government's official web portal to all federal, state and local government web resources and services.